Наугарзан

Таджикистан     40°59′52″N   70°25′51″E
темп.,
°C
ветер,
м/с
пор.,
м/с
влажн.,
%
обл.,
%
осадки,
мм/ч
давл.,
гПа
погр.,
м
19 апреля, пн
пн1923:00+6ссз34635 0.0 102295
02:00+5с11586 0.0 102219
05:00+5св1161100 0.0 102111
08:00+7в125598 0.0 1020385
11:00+10юв214597 0.0 10181325
14:00+12юв233730 0.0 10161821
17:00+13юв1232100 0.0 10141914
20:00+11юв1146100 0.0 1015131
20 апреля, вт
вт2023:00+10с115192 0.0 101541
02:00+9ссз1152100 0.0 101325
05:00+8сз1253100 0.0 101325
08:00+9зсз344994 0.1 1014939
11:00+10зсз3448100 0.1 10141233
14:00+11зсз6849100 0.1 10131452
17:00+10зсз455222 0.2 1012961
20:00+8сз4562100 0.0 1012363
21 апреля, ср
ср2123:00+7сз4565100 0.0 1012502
02:00+6зсз51181100 0.6 1012931
05:00+2сз5695100 14.8 1013199
08:00+2сз449696 18.3 1015176
11:00+3зсз569689 23.7 1015283
14:00+5сз7139067 0.9 1013651
17:00+4сз698856 1.1 1016452
20:00+1сз558619 0.0 1020100
22 апреля, чт
чт2223:00+2сз568240 0.1 1020185
02:00−2сз567913 0.0 102387
05:00−3сз446911 0.0 102656
08:00+2ссз22570 0.0 1024147
11:00+5зсз23611 0.0 1023525
14:00+7зсз34470 0.0 1022821
17:00+7зсз34612 0.0 1022611
20:00+4сз44810 0.0 102598
23 апреля, пт
пт2323:00+3ссз33650 0.0 102546
02:00+3ссз22490 0.0 102420
05:00+2ссв115455 0.0 102412
08:00+6вюв11492 0.0 1024267
11:00+9ююв12382 0.0 1023969
14:00+12юз1329100 0.0 10211385
17:00+12зюз123196 0.0 10211037
20:00+8юв22512 0.0 102318